TimePDT,TemperatureF,Dew PointF,Humidity,Sea Level PressureIn,VisibilityMPH,Wind Direction,Wind SpeedMPH,Gust SpeedMPH,PrecipitationIn,Events,Conditions,WindDirDegrees,DateUTC
12:53 AM,44.1,41.0,89,30.32,10.0,Calm,Calm,-,N/A,,Clear,0,2012-10-17 07:53:00
1:53 AM,43.0,41.0,93,30.33,5.0,Calm,Calm,-,N/A,,Clear,0,2012-10-17 08:53:00
2:53 AM,42.1,39.0,89,30.35,10.0,Calm,Calm,-,N/A,,Clear,0,2012-10-17 09:53:00
3:40 AM,42.8,39.2,87,30.33,1.8,Calm,Calm,-,N/A,,Clear,0,2012-10-17 10:40:00
3:49 AM,39.2,39.2,100,30.33,0.8,Calm,Calm,-,N/A,,Clear,0,2012-10-17 10:49:00
3:53 AM,39.9,37.9,93,30.33,0.8,West,3.5,-,N/A,,Clear,280,2012-10-17 10:53:00
4:01 AM,41.0,39.2,93,30.32,2.0,NW,3.5,-,N/A,,Clear,310,2012-10-17 11:01:00
4:08 AM,42.8,39.2,87,30.32,10.0,Calm,Calm,-,N/A,,Clear,0,2012-10-17 11:08:00
4:33 AM,39.2,37.4,93,30.32,1.8,Calm,Calm,-,N/A,,Clear,0,2012-10-17 11:33:00
4:42 AM,39.2,37.4,93,30.32,0.5,Calm,Calm,-,N/A,Fog,Fog,0,2012-10-17 11:42:00
4:53 AM,39.9,37.9,93,30.32,0.8,Calm,Calm,-,N/A,,Clear,0,2012-10-17 11:53:00
5:02 AM,39.2,37.4,93,30.32,2.0,Calm,Calm,-,N/A,,Clear,0,2012-10-17 12:02:00
5:11 AM,39.2,37.4,93,30.32,4.0,Calm,Calm,-,N/A,,Clear,0,2012-10-17 12:11:00
5:53 AM,39.0,37.9,96,30.32,10.0,Calm,Calm,-,N/A,,Clear,0,2012-10-17 12:53:00
6:53 AM,43.0,39.9,89,30.32,10.0,WNW,4.6,-,N/A,,Clear,300,2012-10-17 13:53:00
7:53 AM,42.1,39.9,92,30.31,10.0,Calm,Calm,-,N/A,,Clear,0,2012-10-17 14:53:00
8:53 AM,45.0,42.1,90,30.30,10.0,NNW,3.5,-,N/A,,Clear,340,2012-10-17 15:53:00
9:53 AM,48.9,43.0,80,30.32,10.0,North,5.8,-,N/A,,Clear,350,2012-10-17 16:53:00
10:53 AM,55.0,46.0,72,30.30,10.0,NNE,5.8,-,N/A,,Clear,20,2012-10-17 17:53:00
11:45 AM,57.2,46.4,67,30.29,10.0,NE,6.9,-,N/A,,Mostly Cloudy,40,2012-10-17 18:45:00
11:53 AM,57.0,44.1,62,30.29,10.0,East,5.8,-,N/A,,Scattered Clouds,80,2012-10-17 18:53:00
12:53 PM,60.1,41.0,49,30.28,10.0,NE,6.9,-,N/A,,Clear,50,2012-10-17 19:53:00
1:53 PM,61.0,41.0,48,30.25,10.0,North,8.1,-,N/A,,Clear,10,2012-10-17 20:53:00
2:53 PM,62.1,42.1,48,30.22,10.0,North,10.4,-,N/A,,Clear,360,2012-10-17 21:53:00
3:53 PM,63.0,39.9,43,30.22,10.0,North,8.1,-,N/A,,Clear,350,2012-10-17 22:53:00
4:53 PM,63.0,41.0,45,30.21,10.0,North,4.6,-,N/A,,Clear,360,2012-10-17 23:53:00
5:53 PM,61.0,42.1,50,30.19,10.0,North,3.5,-,N/A,,Clear,10,2012-10-18 00:53:00
6:53 PM,55.9,43.0,62,30.20,10.0,Calm,Calm,-,N/A,,Clear,0,2012-10-18 01:53:00
7:53 PM,52.0,43.0,71,30.21,10.0,Calm,Calm,-,N/A,,Clear,0,2012-10-18 02:53:00
8:53 PM,50.0,43.0,77,30.21,10.0,Variable,6.9,-,N/A,,Clear,0,2012-10-18 03:53:00
9:53 PM,48.0,42.1,80,30.22,10.0,Calm,Calm,-,N/A,,Clear,0,2012-10-18 04:53:00
10:53 PM,46.0,41.0,83,30.22,10.0,Calm,Calm,-,N/A,,Clear,0,2012-10-18 05:53:00
11:53 PM,44.1,39.9,85,30.22,10.0,Calm,Calm,-,N/A,,Clear,0,2012-10-18 06:53:00